PulseSat

PulseSat

MOLNIYA 1-81

Last updated on Dec. 8, 2018, 12:08 a.m. UTC

1 21426U 91043A   18341.49305115  .00000207  00000-0  00000+0 0  9995
2 21426  63.7458 138.6149 6798016 276.1012  16.3819  2.00616327201310
UTC
Height (km)
Latitude
Longitude
Inclination
Orbital Period

Next 30 passes for location: Hong Kong

Rise time Rise Azimuth (degrees) Set time Set Azimuth (degrees) Duration Max altitude (degrees)

No matching passes for this satellites

PulseSat

PulseSat is the new satellites software and hardware trackering solution by Pulsely.
Satellite Two Line Element Set source: US Air Force Space Command

Download PulseSat for iOS
© 2017 Pulsely Limited